RH
14 15 15 15 14 15 14 15 15 16 17 16 18 16 13 12 13 15 14 13 13 13 14 13 14 14 13 12 11 9 10 11 13 17 14 14 14 13 13 11 12 12 14 13 8 10 12 13 14 12 15 18 24 28 24 35 45 40 49 57 59 66 66 59 52 50 44 32 32 47 68 68 59 55 45 44 51 54 52 54 58 54 60 68 61 64 79 86
13 13 15 15 15 16 15 15 16 16 16 16 17 17 17 15 16 16 13 13 13 13 14 13 14 13 12 12 10 9 11 11 14 18 16 15 14 11 12 10 12 13 14 14 11 13 13 15 16 16 20 20 22 25 25 30 34 49 61 56 62 68 63 57 47 41 36 27 34 51 65 69 58 49 43 38 48 54 45 52 57 51 62 80 84 84 87 90
13 13 14 15 15 16 15 14 15 16 16 17 17 17 17 17 18 17 13 13 12 12 13 12 13 12 12 11 9 10 12 12 14 19 16 14 13 11 11 10 12 14 14 15 14 13 14 15 12 17 21 18 24 25 25 28 32 51 55 47 60 68 59 54 45 34 30 29 35 47 59 68 60 45 41 39 45 49 44 51 53 47 52 73 94 92 86 91
15 14 14 14 15 14 13 13 13 13 14 14 15 16 16 17 18 16 14 13 13 13 12 12 11 10 11 9 9 10 14 15 15 17 15 14 14 12 11 12 13 13 15 16 14 15 16 15 14 22 20 19 31 27 23 29 31 40 46 48 56 57 46 42 46 37 30 33 40 49 51 55 52 43 43 39 42 48 43 42 46 47 46 65 93 92 85 89
15 15 14 14 13 12 12 12 12 12 12 13 13 14 15 15 16 17 15 13 14 14 12 13 11 10 10 9 9 11 15 18 16 14 14 15 13 12 12 13 13 13 16 15 15 16 15 15 18 28 26 20 27 24 21 29 31 33 43 52 56 50 32 33 45 36 31 38 44 45 37 39 41 42 46 38 37 43 37 36 41 45 48 62 86 91 87 86
13 13 13 13 13 12 12 12 12 12 12 13 12 13 13 13 14 15 14 13 14 13 13 13 12 11 9 10 11 12 13 13 15 14 14 14 11 12 13 13 14 14 16 16 16 15 15 17 15 25 32 22 22 23 23 31 30 27 37 45 49 48 30 27 34 31 31 30 32 33 28 36 37 36 43 36 35 39 35 42 53 63 67 71 83 91 90 87
12 12 12 12 12 12 12 12 12 12 12 12 12 13 12 12 13 13 13 13 13 13 13 13 13 12 10 11 12 18 18 11 15 15 12 13 11 13 12 13 15 14 17 16 15 17 18 17 16 28 29 21 25 24 26 33 29 24 34 38 38 40 30 27 30 32 32 21 24 30 26 32 29 27 35 35 37 38 38 50 66 78 80 78 83 88 87 88
12 12 12 12 11 11 11 11 10 10 10 10 10 11 11 12 12 12 12 12 12 13 13 13 14 12 12 11 12 23 23 13 15 14 12 14 13 14 12 14 15 15 18 16 17 18 18 15 17 25 22 25 32 28 28 31 31 30 33 39 40 37 36 40 39 34 31 25 28 29 25 29 30 27 32 39 39 38 44 53 62 68 72 76 78 82 81 81
11 11 11 10 10 9 9 9 8 8 8 8 8 9 9 10 11 12 12 12 13 13 13 14 14 13 13 14 16 20 17 12 14 13 14 15 14 15 13 13 15 16 17 18 20 15 16 18 19 20 19 29 32 28 31 27 32 36 34 41 40 36 43 45 39 33 31 30 28 25 27 34 35 30 31 41 40 40 49 53 57 58 61 66 67 73 73 73
10 10 9 9 9 8 9 8 8 8 8 8 8 8 8 8 10 11 12 13 14 14 16 15 15 15 12 17 22 16 11 13 13 13 15 14 14 15 13 13 15 16 17 19 19 15 16 17 19 22 21 29 28 28 32 25 33 43 43 46 42 43 49 44 34 33 34 28 27 27 33 41 39 38 39 43 42 43 52 52 53 54 54 57 56 60 61 62
9 9 9 9 9 10 10 9 9 8 8 9 9 9 8 9 10 11 13 13 16 18 19 19 18 15 13 21 24 14 11 13 14 15 15 14 15 15 13 13 15 16 17 19 18 17 17 16 19 22 20 24 27 31 38 37 36 42 42 38 46 50 39 39 38 34 33 24 27 29 32 42 44 49 52 46 44 47 50 50 48 49 49 49 49 50 52 53
10 10 10 10 10 11 10 11 10 9 9 9 9 9 9 11 11 13 14 16 23 24 23 22 18 15 17 24 23 14 13 14 14 15 15 15 15 14 13 14 16 16 16 17 18 18 19 18 16 17 19 24 27 27 36 48 43 40 39 28 45 55 32 35 43 35 30 23 30 29 27 45 52 53 52 46 48 47 46 47 45 45 45 44 44 44 45 47
12 11 11 12 11 11 11 11 11 10 10 9 9 10 10 10 10 12 16 23 27 23 21 21 18 17 17 19 19 15 15 15 14 16 16 15 15 15 15 16 16 16 16 16 16 18 21 20 16 21 28 33 33 27 36 55 48 35 37 31 38 47 35 36 44 36 25 26 34 25 27 51 58 51 48 49 50 46 43 44 42 41 40 39 40 41 44 46
13 12 12 12 11 11 11 11 11 11 9 9 10 10 11 10 11 15 21 27 23 18 20 19 17 19 19 18 18 16 16 14 14 16 16 15 16 16 16 17 17 15 16 17 16 17 21 21 22 27 34 41 36 26 41 62 57 35 29 48 49 30 29 38 47 42 22 29 42 31 41 59 57 52 49 50 49 43 43 42 39 39 39 40 42 44 46 49
13 13 12 12 12 11 11 10 10 10 9 9 9 11 12 10 14 21 25 22 17 17 18 18 16 21 29 26 17 15 14 14 16 16 17 17 18 18 17 16 17 16 15 16 17 19 22 23 27 31 34 42 37 30 41 50 64 53 23 48 61 30 37 47 47 53 31 29 43 37 50 62 56 53 50 50 47 40 42 42 41 42 43 44 46 48 49 51
13 13 12 12 13 11 11 11 9 9 9 9 11 14 12 13 21 24 21 18 18 18 17 22 22 23 31 24 14 16 15 16 18 17 19 20 19 20 19 17 17 17 16 18 20 22 23 26 37 43 36 34 40 47 50 41 54 65 34 35 51 35 45 46 39 58 47 37 47 44 54 64 59 53 49 50 46 41 45 46 45 46 46 47 48 50 52 54
13 13 13 12 12 12 12 10 9 9 9 12 14 13 13 19 24 22 20 20 21 21 19 25 26 23 23 17 16 20 20 19 18 19 19 19 21 21 19 20 21 19 18 19 21 22 21 28 38 46 50 51 53 44 39 43 43 52 47 38 48 47 45 41 37 53 54 50 56 55 61 66 58 52 49 48 46 44 47 47 47 47 48 48 49 51 53 55
12 12 13 12 12 12 11 10 9 8 11 16 15 14 18 22 23 22 23 23 23 24 21 24 28 23 16 17 21 20 20 20 19 20 19 19 21 21 21 23 23 19 22 22 19 21 21 35 45 42 49 53 50 31 27 53 43 30 44 43 49 53 45 47 50 54 58 59 61 59 63 63 55 50 47 45 45 47 48 48 49 49 50 51 51 53 54 55
11 12 11 11 12 10 11 9 8 10 14 17 13 15 22 26 25 21 17 18 22 21 18 24 31 23 15 20 24 20 21 20 19 19 20 22 20 21 22 22 26 21 21 23 21 30 31 35 43 37 41 45 45 39 31 49 44 30 51 57 50 47 50 58 56 58 60 58 64 64 63 62 57 53 48 45 43 46 49 48 50 51 52 53 53 54 55 56
10 11 9 11 10 9 10 8 9 15 16 16 14 15 23 29 31 29 26 26 29 30 28 35 37 28 22 25 25 22 21 17 19 21 21 22 21 23 22 26 38 30 29 32 25 39 36 27 38 37 46 53 50 53 46 51 55 47 54 59 54 50 54 58 53 60 64 62 68 64 62 64 60 58 55 52 49 50 51 51 53 54 53 55 55 57 57 57
10 9 9 10 8 9 9 7 13 17 18 18 13 13 19 21 21 23 26 27 35 46 48 49 47 36 28 29 27 23 24 22 20 22 22 23 23 21 23 36 38 23 40 52 41 51 42 31 52 53 54 57 54 62 61 56 55 50 48 49 53 56 52 52 57 64 64 66 68 59 61 65 61 62 61 60 62 61 58 57 58 56 55 56 56 58 58 57
10 8 9 9 8 9 7 10 17 19 20 17 15 28 37 33 29 26 23 23 32 48 55 50 47 42 31 27 27 24 31 33 24 25 25 22 26 24 28 45 39 27 50 58 46 58 52 43 61 66 66 66 65 71 62 54 56 57 55 47 50 60 55 50 61 66 60 64 67 59 61 63 59 61 62 62 64 63 60 59 59 59 59 60 59 60 60 58
9 9 9 8 9 8 7 14 19 21 23 17 22 43 49 43 39 33 30 27 25 38 51 44 39 40 31 24 26 28 34 35 29 30 28 26 34 37 34 44 48 42 50 51 41 44 43 44 61 72 72 61 56 65 58 51 58 60 54 49 55 60 51 48 60 67 61 62 63 58 57 58 56 60 63 61 59 58 57 56 57 59 61 62 62 61 61 62
9 9 8 8 9 7 9 16 18 24 28 23 28 41 45 42 38 36 38 34 30 38 44 42 43 39 29 24 26 30 35 38 35 30 28 31 35 39 39 43 47 41 44 56 51 40 39 49 65 71 67 53 44 54 56 46 55 68 60 52 58 58 52 56 61 60 58 58 54 52 56 59 57 63 66 60 59 58 56 57 59 59 61 61 61 61 61 61
9 8 9 9 8 8 12 18 20 28 34 30 31 38 42 39 39 40 39 34 32 36 38 38 43 35 26 25 27 34 38 38 37 32 31 36 36 37 40 43 39 32 48 62 53 45 50 60 66 60 57 56 46 49 55 48 52 65 59 52 55 56 56 61 58 57 66 65 52 48 57 63 58 62 69 63 62 64 59 61 63 62 63 63 64 63 61 60
8 9 10 8 9 9 13 21 22 26 34 35 34 37 38 36 40 40 43 45 33 27 31 29 29 28 25 28 38 44 35 29 32 33 34 36 40 34 30 45 42 33 58 67 50 47 50 58 64 58 59 60 51 47 52 57 54 46 50 60 62 57 55 58 55 58 69 66 54 47 53 68 66 58 67 69 67 68 64 64 65 64 66 66 67 65 61 61
8 10 10 8 12 11 15 24 22 20 28 33 33 36 35 36 38 33 40 49 35 24 29 29 26 25 25 31 43 38 24 27 31 34 39 35 40 36 29 50 44 35 61 59 41 47 48 53 59 59 64 58 48 44 47 61 56 43 54 66 60 51 51 56 52 52 61 55 51 50 48 72 82 63 64 69 69 72 68 67 68 66 69 70 68 66 63 61
8 10 9 11 14 15 22 23 18 22 27 29 31 33 34 34 38 38 32 25 23 27 30 33 27 24 32 36 43 43 33 34 28 27 40 32 34 42 37 44 38 38 59 46 39 57 55 51 49 49 56 55 46 44 54 59 46 48 68 68 59 55 54 57 51 55 63 51 55 62 48 62 82 71 67 67 68 78 73 68 70 68 71 72 70 70 65 62
8 10 10 14 15 18 27 23 18 24 26 27 29 31 35 32 33 38 28 13 18 27 29 31 22 27 49 43 42 55 44 36 33 33 44 32 27 39 39 46 49 50 55 49 53 61 54 55 53 45 47 49 47 52 66 59 40 54 71 62 61 65 65 66 61 61 65 55 61 68 48 54 77 76 71 68 69 79 75 67 67 67 72 73 72 72 66 63
8 12 13 17 17 17 25 26 23 23 26 28 26 31 35 37 51 44 20 13 18 23 30 30 23 38 62 51 45 54 42 41 51 52 53 41 34 42 46 52 57 56 52 52 59 59 57 65 63 55 53 50 50 62 75 65 53 60 60 51 51 55 61 75 80 68 64 69 69 64 54 56 70 73 72 73 74 76 74 68 63 63 70 74 74 72 67 63
11 18 19 20 19 18 23 25 23 23 28 28 28 39 33 40 74 58 15 14 22 26 33 35 41 57 66 55 44 49 50 52 59 60 58 50 44 48 49 46 53 66 62 50 52 59 63 62 58 64 67 57 48 54 65 66 66 58 48 45 42 44 48 61 77 69 66 82 71 63 64 55 63 77 76 78 75 72 71 66 62 61 68 75 75 72 68 64
15 23 23 22 21 21 22 23 25 24 26 32 41 56 49 38 47 38 21 21 20 26 33 36 51 61 60 52 43 49 54 48 52 62 63 61 58 54 54 51 48 56 57 48 43 46 53 55 56 61 62 56 45 41 49 58 60 50 48 53 47 52 53 50 65 67 70 78 61 60 65 54 72 86 76 75 72 71 69 60 59 60 64 73 76 73 68 62
19 25 24 23 24 26 24 24 24 21 29 44 46 54 64 46 19 21 39 32 18 30 42 48 59 59 54 47 43 52 49 34 41 53 54 63 67 60 61 61 51 41 39 42 40 38 45 48 48 46 45 51 46 35 38 45 48 44 47 53 51 56 57 59 69 61 56 60 52 59 60 62 89 85 66 71 70 68 67 58 60 58 60 70 72 70 66 59
23 25 21 24 27 27 30 28 20 24 38 46 40 34 36 28 15 24 38 35 38 47 52 59 59 49 43 39 42 51 39 28 38 48 52 63 67 67 66 61 58 50 41 43 41 42 45 35 33 36 37 50 53 43 40 40 45 50 48 47 52 53 47 56 70 56 50 60 57 59 61 76 98 82 65 71 68 67 65 58 59 54 55 66 70 70 64 58
24 24 22 28 27 25 33 32 23 31 41 47 58 51 26 16 25 35 37 43 55 53 49 55 49 38 41 46 49 45 29 27 41 48 55 63 63 66 67 61 62 59 50 47 41 41 43 31 32 44 46 51 54 52 52 43 40 51 53 48 54 59 53 57 70 65 64 71 70 77 84 85 85 71 64 66 62 62 62 60 62 57 53 57 64 71 63 57
27 24 23 27 27 24 30 35 34 36 44 61 73 55 31 27 28 36 47 50 51 51 50 49 42 39 46 52 55 48 32 28 37 42 47 59 60 57 62 64 64 63 54 48 45 44 45 38 41 52 52 51 52 56 58 51 43 46 51 50 48 59 66 63 64 67 70 70 71 89 98 86 79 73 63 60 60 62 63 67 69 62 55 51 56 66 63 57
28 24 23 26 28 23 25 37 40 36 47 69 67 40 34 40 35 47 68 62 51 53 49 37 29 31 38 46 52 54 42 29 35 39 36 46 50 49 63 64 58 66 66 55 50 45 45 49 51 47 44 51 62 62 55 56 56 49 50 55 49 52 64 64 61 69 80 79 75 88 99 94 93 87 70 63 68 69 66 70 71 62 56 53 51 57 62 56
31 28 24 25 25 21 26 34 33 41 57 70 74 62 50 48 51 68 82 73 60 53 44 33 26 28 35 40 46 55 51 39 41 45 37 40 43 48 65 64 57 73 83 69 53 46 50 55 54 47 43 51 57 51 47 52 56 50 47 50 50 53 62 64 63 68 77 83 81 88 96 96 93 91 82 72 71 72 65 65 70 63 59 56 47 48 58 54
29 31 28 24 22 22 27 26 27 50 61 55 64 65 51 53 70 84 86 76 59 47 45 41 34 37 42 41 45 55 55 47 46 48 42 38 40 50 66 64 57 71 85 74 55 51 54 52 51 48 42 43 45 45 51 55 57 59 56 56 63 70 69 63 62 67 75 83 87 89 90 92 88 81 78 72 67 69 64 60 63 59 57 54 43 45 56 53
25 33 30 21 21 22 21 18 29 53 54 45 57 63 56 62 76 87 94 85 60 41 40 43 40 42 46 46 46 51 57 59 55 51 47 39 38 54 72 76 74 79 82 71 59 58 57 49 51 52 44 42 45 47 54 57 57 62 67 71 73 74 71 65 61 65 75 84 92 93 90 89 81 65 63 66 62 61 60 58 56 52 53 49 40 48 56 49
26 37 32 20 21 26 26 28 46 69 65 51 57 70 77 71 63 75 92 90 73 53 44 47 48 46 49 49 45 50 63 69 62 51 48 46 41 50 72 88 95 93 81 65 61 67 65 56 57 59 54 48 44 47 58 58 52 56 69 75 71 69 73 77 76 75 77 81 84 89 92 89 74 56 54 58 55 54 53 53 52 48 49 45 41 52 55 43
35 36 25 19 19 24 33 44 66 87 79 56 47 64 86 80 62 67 76 71 67 61 54 55 56 55 56 52 49 55 63 63 60 53 46 49 49 53 76 94 99 96 85 70 65 67 68 68 68 63 55 48 44 52 67 65 53 54 62 67 75 79 76 78 85 82 76 76 78 83 91 89 72 57 53 52 51 51 49 49 50 49 47 43 44 53 49 38
44 29 16 18 19 23 29 37 62 83 78 63 57 65 80 80 67 63 65 63 57 52 51 54 55 51 51 55 55 55 53 49 50 50 48 53 57 66 86 98 96 92 81 68 63 63 61 62 68 66 60 55 49 50 62 63 60 64 64 65 79 85 78 79 85 80 76 81 87 92 96 89 71 58 53 51 50 50 48 48 50 50 47 43 46 51 45 38
52 34 27 22 11 19 29 28 46 72 73 61 56 59 67 73 75 66 60 66 65 53 48 51 52 48 50 61 62 54 50 43 41 48 53 52 57 77 99 102 93 82 70 66 71 66 54 52 65 75 78 78 71 67 67 62 64 70 68 68 75 79 82 84 80 79 79 78 83 94 97 86 69 59 54 52 52 52 50 49 49 49 48 44 46 48 43 40
43 28 38 35 15 25 49 53 60 74 71 56 49 53 55 59 77 82 70 71 74 63 54 51 55 58 59 62 65 62 56 45 42 53 60 55 56 74 95 100 94 84 79 86 88 76 60 55 64 75 80 82 82 78 73 69 72 74 71 70 73 78 82 76 71 81 83 77 80 88 89 81 69 63 60 56 56 57 53 49 49 48 45 45 47 46 44 43
32 25 42 56 45 44 60 74 81 73 57 52 50 51 50 45 56 75 75 67 67 66 62 58 59 59 55 57 61 60 57 54 54 62 69 69 64 63 77 93 96 90 90 96 94 84 77 72 70 76 77 74 75 72 67 72 76 74 76 79 77 82 84 80 83 87 82 83 87 82 82 83 74 68 67 62 60 61 57 53 51 48 45 45 46 46 47 46
43 35 38 49 49 54 63 70 79 68 51 55 52 43 53 54 46 56 60 55 60 66 61 59 63 59 57 62 57 50 57 61 60 66 72 76 76 70 71 79 82 80 85 90 84 74 74 73 71 75 74 69 73 71 65 72 75 73 81 83 78 80 82 83 88 79 72 88 92 80 82 87 78 73 72 68 64 61 57 54 51 49 46 45 46 49 51 49
41 35 39 40 36 45 52 51 64 66 57 68 66 49 58 66 56 56 54 50 59 57 43 47 64 72 77 74 57 53 66 65 62 74 79 80 84 77 65 62 64 68 76 80 79 73 73 81 84 78 69 65 70 69 64 70 76 78 84 82 78 81 82 82 82 73 73 87 84 74 82 88 81 76 71 66 62 58 54 51 48 47 47 49 52 53 55 53
38 39 46 48 43 45 52 58 68 63 56 72 73 57 63 68 59 61 58 50 54 51 45 53 66 79 88 81 68 69 72 61 59 75 85 86 86 81 71 63 60 67 73 76 83 80 69 78 92 84 68 65 70 72 72 77 81 84 85 84 82 82 82 83 81 76 77 81 77 77 88 90 81 73 67 60 54 51 49 47 48 48 50 56 59 58 59 56
33 36 41 55 64 65 71 78 75 61 58 71 65 52 65 67 59 64 65 56 51 52 63 72 72 79 84 78 78 79 73 66 60 65 79 84 81 80 74 63 61 68 73 75 82 76 52 56 87 89 70 71 80 79 78 82 87 88 84 83 86 85 85 86 83 82 84 84 82 85 91 90 76 63 61 56 49 50 51 52 54 52 53 61 63 61 61 57
38 39 40 51 59 62 70 72 68 64 63 66 61 56 61 61 62 68 67 67 69 63 70 79 75 77 79 79 85 81 75 81 72 64 75 76 73 74 67 62 68 69 70 78 86 84 67 68 94 85 52 57 78 80 81 82 81 85 86 87 92 91 88 87 83 79 83 88 92 92 93 90 74 59 57 55 52 55 56 57 58 54 53 59 64 65 61 57
48 42 42 48 47 59 77 72 63 62 52 53 66 68 62 65 77 69 47 59 83 78 76 84 77 73 76 79 84 79 74 83 79 76 83 77 72 74 66 67 74 68 74 85 87 95 92 87 98 81 42 45 66 73 83 80 66 74 87 86 89 92 88 86 80 73 75 86 97 99 91 79 65 59 64 62 58 60 60 60 60 57 56 58 60 63 60 57
Wind_Speed
9 9 8 8 7 7 7 7 7 7 8 8 9 8 7 8 10 9 9 10 9 7 6 6 7 8 10 12 14 15 14 10 7 4 2 1 2 4 7 8 8 9 10 9 8 3 1 2 3 5 3 2 3 1 1 3 2 2 3 2 3 3 3 5 6 5 3 3 2 1 3 4 0 2 1 0 4 4 1 2 2 2 5 5 3 5 14 20
9 8 8 8 7 7 7 7 7 8 8 8 9 9 9 9 10 9 9 10 9 8 7 7 7 9 10 13 14 16 15 10 5 3 4 2 3 5 7 7 7 9 10 9 7 4 2 1 2 5 5 1 2 2 1 2 2 3 3 2 4 5 4 5 6 6 4 2 2 1 2 4 2 0 0 1 3 4 2 4 5 2 3 6 6 12 18 20
10 9 8 8 7 8 8 8 8 8 8 8 8 9 9 9 9 9 9 10 10 9 9 9 9 10 11 12 14 15 14 7 3 3 3 4 5 6 7 6 7 8 9 8 7 4 1 2 2 4 4 1 1 2 1 1 1 2 3 2 5 5 4 4 5 6 4 1 2 1 1 3 1 1 1 0 2 3 2 3 4 4 4 3 3 10 16 18
11 10 9 8 8 8 8 8 8 8 8 8 8 9 9 9 9 9 9 9 9 9 9 10 11 11 11 12 13 15 11 4 2 1 2 5 6 7 7 6 7 7 7 8 6 2 1 3 4 5 3 1 3 2 1 1 0 1 3 4 4 3 2 3 5 5 3 1 3 3 4 2 2 2 3 2 2 4 4 5 4 7 8 2 4 8 13 15
11 10 10 9 9 8 8 8 8 9 9 8 8 8 8 8 8 8 9 8 7 8 9 11 12 11 11 12 13 13 7 4 1 2 3 7 7 7 7 6 7 7 7 7 4 1 2 2 5 6 3 0 2 2 1 1 2 1 2 4 3 4 2 2 3 3 2 3 5 4 3 2 0 3 4 8 6 5 7 10 9 9 9 4 5 8 8 8
11 11 10 10 9 9 9 9 9 9 9 9 9 9 9 8 8 8 8 8 7 7 9 11 13 12 11 11 12 9 5 2 3 2 6 8 8 7 7 8 8 7 7 5 1 2 1 3 4 3 3 1 1 2 3 2 2 2 2 1 2 3 2 1 1 2 3 5 5 4 2 3 5 4 3 11 9 8 9 10 9 7 5 2 6 6 5 5
11 11 11 11 11 10 11 11 11 11 10 10 10 10 9 9 8 8 8 7 7 8 9 10 13 13 11 11 9 5 5 1 3 3 6 7 8 7 6 8 7 7 7 3 1 2 2 3 2 4 4 1 3 3 2 2 3 3 3 3 1 3 4 1 1 1 4 5 3 4 4 3 4 5 4 10 10 11 11 9 8 8 10 13 11 7 8 9
12 12 12 12 12 12 12 12 13 13 13 12 12 12 11 11 10 9 9 8 9 9 10 11 11 12 11 8 4 4 3 2 2 4 6 6 7 8 6 7 6 7 5 2 1 3 2 2 3 4 3 2 4 3 2 1 3 3 5 3 2 3 4 4 2 2 4 3 2 6 8 4 4 1 6 10 13 12 11 10 10 11 15 15 10 8 8 9
13 13 13 14 14 14 14 14 14 14 14 14 14 13 12 12 11 11 11 10 11 11 11 10 10 10 8 5 5 4 2 1 2 3 5 7 8 8 7 5 5 7 3 2 2 3 2 2 4 4 4 3 5 3 2 2 3 4 6 3 2 2 4 3 1 0 1 1 3 7 9 8 9 3 6 11 15 10 8 9 10 12 14 12 10 10 10 10
14 14 14 14 15 15 15 16 16 15 16 15 14 13 12 12 11 11 11 12 12 12 11 10 9 7 5 2 6 3 2 1 3 3 6 9 9 9 7 5 4 6 3 2 1 3 2 4 4 4 5 3 4 3 2 5 3 3 5 3 2 2 4 2 1 2 2 1 4 8 8 10 11 4 3 11 13 8 7 12 12 14 14 11 11 11 14 16
14 15 15 15 16 16 17 17 17 18 18 17 14 12 11 11 11 11 11 12 12 11 11 8 5 3 1 3 5 1 3 1 2 2 7 10 10 9 5 4 3 4 3 2 1 1 2 4 6 5 2 2 3 1 1 4 2 3 3 1 4 4 2 3 5 3 2 2 4 10 9 10 13 7 4 10 10 6 10 15 14 16 13 12 13 11 15 18
15 15 16 16 17 17 18 18 19 19 20 19 15 12 13 13 12 12 11 12 11 10 8 4 2 2 1 3 3 4 3 1 2 3 8 11 10 8 2 1 2 3 3 2 2 1 2 3 7 4 1 3 3 0 2 2 3 2 2 1 7 7 4 6 5 4 2 2 2 5 6 10 12 7 8 8 6 5 14 15 14 15 12 12 13 11 14 18
16 16 16 17 17 18 18 18 19 19 20 20 17 14 15 15 14 13 12 11 9 6 3 2 2 3 2 1 2 3 1 1 2 4 9 11 10 4 2 2 4 4 3 1 2 2 1 3 6 3 2 4 1 1 2 3 3 0 2 2 4 6 5 6 5 4 3 2 5 1 2 4 8 8 8 7 6 6 16 12 11 12 11 11 12 12 13 19
17 17 17 17 17 18 18 19 19 19 20 20 17 15 16 17 15 13 11 9 6 3 2 3 3 4 2 1 2 1 1 1 3 8 12 12 9 2 2 6 5 4 3 2 2 1 1 3 5 4 2 2 1 2 3 5 3 0 1 2 1 0 3 5 5 4 3 3 6 3 3 2 5 10 8 7 6 9 15 9 10 10 10 11 11 12 12 17
17 17 17 18 18 18 19 19 19 20 21 20 17 15 16 17 14 10 7 5 4 3 3 4 3 3 2 1 0 2 2 2 6 12 13 12 8 2 4 8 3 3 2 1 0 2 4 5 6 4 0 2 2 3 2 4 3 2 0 3 2 2 4 5 5 6 1 2 10 6 4 1 4 8 8 6 5 11 15 9 10 11 11 11 10 12 12 14
18 18 18 18 18 19 19 20 20 20 21 19 16 15 16 15 10 6 3 2 2 2 2 3 3 3 3 1 1 3 3 4 10 13 10 9 7 5 8 6 3 2 2 4 5 6 6 5 4 2 1 1 3 4 2 4 3 3 0 3 2 2 2 2 3 9 4 1 11 7 5 2 2 6 7 6 5 10 14 10 11 11 11 12 10 11 11 11
19 19 19 19 19 20 20 20 20 21 20 17 14 15 15 11 6 2 2 2 2 1 2 3 3 3 2 1 2 3 3 7 12 10 7 9 8 7 7 2 3 5 6 7 6 4 4 4 1 1 2 2 2 4 2 3 4 3 1 1 2 2 1 1 2 8 10 8 9 9 9 4 3 4 6 6 5 9 13 10 11 11 11 11 10 11 12 12
19 19 20 20 20 20 20 20 21 21 19 15 14 15 11 5 2 2 2 2 0 1 3 2 2 3 1 3 2 5 9 11 11 6 7 12 8 6 5 3 2 4 6 5 2 1 2 3 2 1 3 3 1 4 2 4 3 2 1 1 1 0 2 2 1 4 9 13 10 10 10 6 5 5 5 6 5 10 12 10 10 11 11 11 11 12 12 12
20 20 20 20 20 20 20 20 20 19 16 14 15 13 6 2 1 2 3 4 1 1 1 2 2 2 2 3 3 9 11 8 6 5 9 14 9 4 4 4 3 3 3 2 1 2 1 2 3 1 1 2 3 5 6 7 3 2 3 4 3 2 3 2 2 1 8 14 9 7 9 6 6 5 5 5 6 9 11 9 10 9 10 10 10 11 11 12
20 20 20 19 19 19 19 19 19 16 14 14 14 8 3 3 3 3 4 5 2 1 2 1 1 1 2 3 5 11 9 3 3 5 12 16 8 2 3 5 5 4 3 1 2 2 2 1 2 4 5 6 6 6 5 4 3 3 4 4 3 4 2 0 3 2 5 10 6 5 9 7 5 4 5 5 6 9 10 10 10 9 10 9 10 11 11 11
21 21 20 19 18 18 18 18 16 14 12 12 10 4 2 1 2 3 4 4 0 1 3 1 2 1 3 3 6 8 4 1 3 6 14 15 6 1 2 4 5 3 2 2 2 3 3 1 5 7 7 6 4 4 4 4 3 3 3 3 1 3 1 1 3 1 1 7 3 4 9 7 5 5 6 7 8 8 8 9 9 9 10 9 10 11 10 9
22 22 21 19 18 17 18 17 13 11 11 10 8 6 4 3 3 1 0 1 2 2 3 1 1 3 3 1 4 5 3 4 4 6 16 15 6 3 3 4 5 1 3 1 1 5 3 3 7 6 4 2 2 3 4 3 3 3 1 3 1 2 3 2 3 4 3 6 4 4 8 6 4 7 7 7 8 7 6 8 8 9 10 9 9 9 9 9
23 22 21 19 18 17 17 14 9 10 11 9 8 6 4 4 5 3 3 2 3 3 3 3 2 3 4 2 4 6 4 4 2 6 14 13 5 3 1 5 4 1 4 2 2 0 2 4 4 2 4 4 3 3 4 3 2 2 2 3 2 2 3 2 2 4 5 5 8 8 8 5 5 7 7 6 6 6 6 8 8 8 10 10 9 9 9 10
23 22 20 19 17 17 16 10 7 10 10 9 9 7 5 4 5 3 3 3 2 3 1 1 1 0 2 1 5 5 3 1 1 5 12 9 2 2 2 3 2 1 2 1 5 4 4 3 1 3 2 3 2 2 4 4 2 2 3 4 3 3 2 3 4 4 7 6 8 11 7 2 4 6 5 4 4 6 6 7 9 8 8 9 9 10 10 10
22 21 18 17 16 16 13 5 7 10 6 6 7 5 4 3 2 2 3 3 2 2 1 1 1 1 1 2 7 4 2 1 1 4 7 7 2 2 2 1 1 1 1 1 2 2 5 3 1 2 4 3 2 1 2 4 1 4 2 4 5 5 5 9 9 5 6 1 6 6 3 1 3 5 6 3 4 7 5 7 9 8 7 8 8 9 9 9
21 19 17 16 15 15 9 2 7 10 4 4 5 2 1 2 1 1 2 3 1 2 3 1 1 3 4 4 6 2 2 2 1 2 5 6 2 1 1 2 1 1 3 2 0 2 2 2 2 3 4 5 3 1 3 3 3 2 1 3 4 6 9 11 9 3 3 3 6 5 3 2 3 4 6 5 6 6 5 7 7 6 7 7 7 7 7 8
20 18 16 15 14 13 6 1 7 7 2 3 4 1 0 1 1 1 2 5 3 1 2 2 0 4 4 5 5 2 1 4 2 3 5 6 4 1 1 3 1 1 2 1 2 1 1 3 5 5 5 5 3 2 1 4 5 1 2 3 4 6 7 9 7 3 3 1 1 3 3 2 3 4 7 8 7 6 6 7 5 5 6 7 7 7 7 7
19 16 15 13 11 10 5 2 6 3 1 3 2 1 0 1 1 1 4 4 2 1 1 2 1 2 4 6 6 5 0 5 2 2 5 6 5 3 2 1 2 1 2 1 2 3 1 3 4 4 5 3 1 2 2 3 2 2 2 3 2 3 3 5 5 3 0 1 1 4 4 1 2 3 6 7 6 5 4 5 4 5 5 5 6 6 7 7
18 15 14 10 6 8 5 3 5 3 2 2 0 1 0 1 1 2 5 2 1 1 1 1 1 3 7 6 6 5 2 3 3 4 7 6 5 5 2 1 4 3 2 1 3 4 1 1 1 3 3 1 2 2 1 2 0 1 4 4 4 4 3 3 4 2 3 1 4 6 6 3 2 3 6 4 4 5 4 4 3 4 4 4 5 5 6 5
17 14 11 7 4 7 4 2 6 5 4 3 1 1 1 2 4 5 3 1 1 1 1 2 2 4 8 6 5 6 5 3 3 5 5 3 6 7 3 1 4 5 2 4 2 3 2 1 1 2 2 1 1 0 0 1 1 3 4 4 4 4 4 3 2 3 3 2 5 5 4 2 1 3 4 1 2 6 7 4 3 4 4 4 4 4 5 4
15 11 8 6 6 8 4 3 7 7 6 4 1 1 2 2 5 6 1 2 1 2 3 4 3 4 7 5 3 6 5 4 5 6 6 4 7 8 5 3 4 4 4 5 2 3 4 3 1 1 1 1 2 1 1 1 2 3 2 3 2 3 3 3 4 3 2 4 5 3 1 3 2 1 2 2 2 7 7 5 5 4 4 4 4 4 4 4
12 7 6 7 8 9 6 4 6 6 6 3 1 2 4 3 3 2 2 3 2 3 2 2 3 4 5 2 3 5 4 5 5 5 3 3 5 5 5 3 2 4 5 4 4 5 4 1 2 2 1 2 2 1 2 3 4 3 1 3 2 3 3 2 3 0 2 4 3 2 1 2 2 0 2 3 5 6 5 6 5 4 4 4 4 3 3 3
7 5 6 8 9 9 7 5 5 6 5 0 1 4 6 5 1 1 3 3 2 2 1 1 3 3 3 3 4 5 2 2 4 4 1 2 4 3 3 4 3 3 2 2 3 5 4 4 4 3 1 2 3 2 3 3 3 3 1 2 1 1 2 3 3 2 3 2 1 2 1 1 1 1 1 3 5 5 5 6 4 4 4 4 4 4 3 4
2 5 7 8 11 12 9 6 4 4 3 1 3 5 6 3 1 1 2 3 1 3 2 0 4 4 3 3 3 4 2 2 4 5 3 3 5 4 4 6 7 3 1 2 2 2 2 4 4 3 2 3 4 2 1 0 2 2 2 4 2 2 1 3 3 2 4 2 2 3 1 1 0 2 2 3 3 4 6 6 5 5 4 4 4 3 3 3
4 6 6 8 12 15 12 7 4 3 1 2 5 6 4 0 3 0 1 4 2 4 3 1 3 4 4 3 3 2 1 2 3 5 5 4 3 3 3 5 6 4 2 3 2 0 1 4 4 2 2 2 3 1 1 2 2 1 2 3 1 2 3 1 3 3 2 2 3 2 1 0 1 2 1 3 4 5 5 5 6 6 5 4 2 2 3 2
6 5 5 7 12 17 14 8 4 2 1 4 7 5 2 1 1 1 1 2 1 3 5 4 4 4 4 4 4 4 2 2 3 4 4 2 2 2 3 2 3 4 3 1 1 1 2 4 4 3 2 2 1 2 1 2 1 0 1 0 2 2 5 2 1 1 2 1 2 1 2 1 1 1 2 4 5 5 4 3 5 5 4 5 3 1 2 2
7 4 2 6 14 18 14 8 4 1 3 6 6 3 2 1 1 2 1 2 0 1 3 4 3 3 3 3 4 6 5 3 3 4 2 1 2 3 3 2 1 2 2 1 2 1 1 4 5 2 1 1 1 0 2 2 1 2 1 2 1 1 4 3 1 3 3 0 2 0 3 2 2 1 3 6 5 5 3 2 3 4 3 4 5 2 2 3
6 2 0 5 16 20 13 7 3 2 5 7 5 2 1 0 0 1 1 1 1 1 4 2 1 2 1 1 3 6 5 4 4 4 2 2 2 3 3 3 1 2 2 2 2 1 2 2 6 1 1 4 2 2 2 4 2 2 0 1 2 2 1 2 2 2 2 2 3 1 1 3 2 2 6 7 5 4 3 3 3 2 2 4 6 5 1 3
4 1 0 6 19 20 10 4 3 4 7 6 3 2 0 0 0 1 1 1 0 2 3 0 1 2 2 1 1 4 4 3 3 3 3 2 2 3 4 1 3 2 3 1 0 2 1 1 4 4 2 4 4 4 3 5 5 4 3 3 3 3 2 1 1 1 1 2 3 2 1 1 1 0 5 7 4 4 3 3 3 3 3 4 7 6 2 3
3 1 1 10 22 15 5 6 7 7 6 4 3 1 1 1 1 1 0 1 1 1 2 1 0 2 2 1 1 2 3 2 2 2 2 2 2 2 3 1 3 5 5 2 2 2 2 2 2 6 4 3 3 3 2 3 4 4 4 4 4 1 0 0 1 1 1 1 1 2 3 1 1 2 4 6 5 5 4 3 4 5 4 5 7 6 2 3
3 3 1 15 22 7 4 10 8 5 4 3 2 1 2 1 1 3 2 0 1 1 1 3 2 2 1 2 2 1 2 2 2 1 1 2 3 2 2 2 2 5 5 4 3 3 2 1 1 5 5 3 1 2 2 2 0 2 2 2 2 2 1 2 1 1 1 0 2 1 3 1 2 2 3 5 4 4 5 4 4 6 5 5 7 4 3 3
5 3 3 19 19 2 7 7 3 2 4 3 2 1 1 2 1 3 3 2 2 1 2 3 2 2 1 1 1 0 1 2 2 1 1 1 2 2 2 2 2 3 1 2 2 2 1 2 1 4 3 2 3 3 1 2 5 6 4 2 0 0 2 2 1 2 1 2 0 1 1 2 0 2 3 5 4 4 5 5 4 6 5 5 6 2 4 3
3 2 5 19 13 3 8 7 2 4 4 0 0 1 1 2 2 2 3 3 3 1 2 2 1 1 2 1 0 1 1 1 0 1 1 1 1 0 0 1 2 2 0 1 2 1 1 3 2 4 4 3 4 3 1 2 5 5 3 3 2 2 1 2 3 1 1 2 2 2 2 3 1 1 3 5 4 4 5 5 5 5 5 6 5 2 3 4
2 2 4 18 14 4 5 4 2 3 2 1 3 3 3 2 3 3 3 3 3 1 2 1 0 1 0 1 1 1 1 1 1 2 2 1 1 0 2 2 2 1 1 0 1 2 2 1 2 3 5 6 6 5 4 3 3 3 2 3 2 2 3 1 1 2 1 1 2 1 3 2 2 3 3 5 5 4 4 4 5 5 6 7 5 2 3 4
3 1 3 14 20 11 4 3 5 4 1 2 5 4 4 2 1 0 1 1 1 1 1 1 1 0 0 1 2 2 3 3 2 3 3 2 2 1 1 3 2 1 0 3 2 1 1 1 2 3 2 3 4 4 4 4 3 2 2 4 4 3 4 2 1 2 1 1 2 1 3 1 2 4 2 4 6 6 6 6 6 6 7 7 3 2 4 5
3 3 3 7 12 10 3 1 4 5 3 3 4 3 4 2 1 2 2 1 1 0 2 2 1 1 2 4 4 3 5 4 2 3 3 3 4 2 2 3 1 1 2 2 0 2 3 2 2 4 4 3 4 4 3 3 2 2 4 6 6 4 3 2 2 2 0 1 3 1 2 2 0 3 2 6 7 7 7 8 8 7 9 7 2 3 5 5
3 2 2 2 4 5 4 4 5 4 2 3 3 2 3 3 2 1 1 1 0 1 2 3 4 4 3 4 4 3 4 4 4 4 1 4 4 3 4 2 1 4 3 1 1 3 4 3 3 3 3 3 3 3 3 3 2 1 3 5 7 7 5 6 4 1 1 2 3 2 0 3 1 3 5 6 7 7 8 9 8 8 9 6 2 4 6 6
3 2 0 0 1 2 3 4 4 5 5 4 3 1 3 3 3 1 2 2 2 1 2 3 6 6 3 2 2 2 4 4 4 2 1 3 4 5 5 2 1 5 5 2 2 3 5 2 2 1 2 3 1 2 2 2 3 2 3 4 6 7 7 6 3 0 3 1 4 4 3 3 1 3 5 6 6 7 9 8 8 9 8 4 3 5 6 6
3 3 1 2 3 2 0 2 2 5 7 5 3 2 3 3 4 1 2 3 4 4 3 4 6 7 4 2 2 2 3 3 2 2 1 1 3 3 4 4 3 4 5 4 4 1 4 1 1 1 2 2 3 4 2 4 3 2 4 4 5 5 5 4 1 0 2 3 6 4 6 4 0 2 4 5 5 6 7 7 8 10 7 4 4 5 6 7
3 3 1 3 4 2 1 2 2 4 5 4 3 2 1 2 3 2 2 3 4 5 5 4 2 4 4 4 4 3 1 1 2 2 2 1 2 1 1 1 2 5 6 4 3 3 3 3 1 2 2 4 3 4 4 4 4 3 3 5 6 5 4 4 2 2 3 5 5 5 6 5 1 2 5 5 5 7 7 8 10 9 4 3 4 5 6 8
4 3 4 6 4 4 3 3 2 4 4 3 2 1 2 3 2 1 2 3 2 1 2 1 2 1 3 6 7 3 3 3 3 2 3 3 2 1 1 0 1 4 6 4 3 4 4 3 2 4 4 5 3 3 2 1 4 4 3 6 7 5 3 2 2 1 2 5 6 6 5 3 1 4 6 6 7 9 8 9 10 6 3 3 4 5 7 8
4 3 3 6 3 3 3 3 3 4 2 2 2 1 2 3 2 1 2 2 1 2 1 2 3 2 4 6 5 2 3 2 3 1 2 4 4 4 2 2 2 1 2 2 2 3 2 2 2 4 3 4 4 3 2 1 3 3 3 4 4 3 2 2 4 4 3 3 4 4 3 2 4 7 7 8 9 9 8 9 9 4 3 5 5 5 7 8
Wind_Direction
21 21 18 17 15 10 5 358 353 346 343 339 341 345 338 337 344 350 350 350 353 351 341 322 320 325 332 337 340 342 341 333 329 344 57 39 335 311 305 310 321 330 342 342 344 356 89 76 12 10 74 117 13 353 26 18 76 77 102 167 234 193 193 188 185 195 186 264 269 246 203 153 40 308 246 54 27 20 4 319 310 12 50 58 76 130 141 147
25 22 18 16 11 9 4 357 353 347 342 337 337 336 333 333 336 342 343 346 350 354 349 333 327 325 330 336 337 340 338 329 337 35 71 36 338 320 310 315 325 334 346 349 354 14 89 73 350 43 65 70 359 5 19 1 65 98 123 183 233 196 207 201 180 192 195 232 206 207 216 162 144 218 5 37 348 356 342 316 329 330 56 51 84 130 144 151
30 27 21 16 11 9 5 2 360 353 347 341 337 334 332 330 333 336 335 340 344 347 347 340 333 326 329 333 337 340 332 334 29 45 45 10 349 327 316 320 326 336 346 349 353 360 109 151 120 71 55 66 343 1 57 6 351 154 134 213 243 206 230 235 193 204 220 245 125 109 129 157 244 319 43 158 279 350 4 340 356 314 328 26 119 139 150 156
29 27 23 20 15 11 8 8 5 359 354 347 342 337 333 330 330 329 328 334 340 348 350 346 337 329 331 334 341 338 331 20 59 305 352 353 347 333 322 321 327 335 339 344 346 339 154 132 88 66 72 59 328 359 131 289 328 158 152 203 225 176 231 243 207 224 239 29 111 132 99 121 275 4 45 44 333 358 1 340 339 297 301 276 184 165 160 160
25 22 20 19 16 12 8 7 3 0 356 350 346 340 336 331 326 321 322 325 333 350 357 356 349 338 334 338 343 337 348 53 333 284 355 347 344 337 331 331 331 332 336 340 340 93 138 117 66 54 66 106 336 21 242 284 91 163 205 196 178 149 220 260 210 219 184 106 98 117 99 134 78 32 23 48 44 349 329 315 302 281 286 262 182 168 158 145
22 18 17 15 12 9 6 4 0 357 353 349 346 340 336 329 321 317 315 316 321 337 350 356 355 347 341 343 343 349 40 49 293 340 346 341 342 334 339 339 335 336 339 340 330 123 99 44 59 73 56 53 176 181 235 324 58 205 272 247 190 184 212 274 194 205 162 115 118 160 135 121 91 81 49 58 44 329 322 313 303 298 311 61 112 116 102 83
19 17 16 13 11 7 3 359 353 348 343 339 336 333 330 324 320 313 309 307 302 312 328 338 348 348 345 347 347 21 72 285 302 3 338 341 340 330 338 336 337 337 334 340 51 141 119 62 109 153 92 49 204 197 216 343 39 164 258 288 181 193 210 244 359 215 171 137 165 156 82 65 84 115 91 45 17 341 344 347 352 13 46 70 78 75 76 76
19 17 15 10 6 1 356 351 346 342 337 333 329 326 321 319 315 308 305 300 294 297 306 315 331 341 347 357 9 21 29 257 321 360 341 350 338 328 325 323 337 337 335 345 323 169 146 111 179 163 114 227 192 170 181 10 22 160 219 252 140 195 242 267 295 225 182 149 124 86 60 18 341 72 90 30 5 355 355 7 24 42 52 58 59 59 68 72
17 14 9 5 1 359 355 352 348 344 341 337 332 327 321 317 312 307 302 297 297 294 298 306 317 334 347 13 70 27 315 208 3 358 0 355 340 333 316 307 334 340 355 348 334 159 171 181 197 181 167 201 171 179 179 175 264 199 190 201 171 239 293 301 281 282 69 162 118 78 48 16 342 347 92 25 4 351 358 29 37 50 53 49 51 51 52 55
13 9 6 3 2 0 358 356 354 350 347 342 336 332 326 320 312 308 302 299 300 295 298 300 305 329 342 28 71 36 248 132 5 4 9 353 344 339 315 291 312 343 7 332 353 140 185 214 193 148 143 146 159 182 143 158 206 179 163 180 209 294 308 327 17 1 26 161 127 102 75 24 3 33 74 358 353 338 23 47 44 55 56 51 56 52 53 52
11 8 6 3 2 0 358 357 356 354 351 346 341 336 331 325 316 311 305 304 302 298 300 291 295 316 309 96 96 185 226 69 347 3 1 348 347 339 315 281 287 339 360 1 354 187 307 219 162 113 137 173 151 158 214 189 135 117 139 223 301 342 341 8 25 347 11 120 123 116 103 30 17 38 356 336 336 339 53 57 48 58 57 53 59 54 55 52
9 7 4 1 360 357 355 354 353 353 352 349 344 338 336 329 321 316 310 310 307 306 300 274 267 237 157 83 131 209 221 355 343 8 356 349 349 340 327 274 296 326 325 25 15 327 349 193 145 104 228 161 137 161 223 203 86 104 107 293 312 0 21 3 6 314 9 107 190 127 93 20 15 8 341 339 319 7 63 62 52 60 58 57 59 54 54 48
5 3 1 358 356 353 351 349 349 349 348 347 343 337 335 329 325 319 315 317 317 321 305 185 181 185 133 35 214 202 226 343 9 4 351 351 352 357 94 21 327 322 310 346 348 11 38 186 145 120 150 121 161 192 115 53 49 213 69 76 318 359 3 353 352 318 40 46 304 191 121 358 2 348 349 353 315 50 66 59 58 64 60 60 58 55 54 45
0 359 356 354 353 351 349 347 345 344 344 343 340 334 330 329 327 320 318 324 330 355 81 126 151 163 133 265 220 92 329 342 9 349 347 351 359 79 94 357 317 289 299 291 294 3 109 159 120 99 85 80 198 141 59 14 18 263 26 34 9 321 294 338 360 359 71 32 345 91 125 351 4 354 358 356 333 79 77 61 65 64 61 62 57 58 54 47
356 354 353 351 350 349 347 346 343 342 341 339 337 332 328 329 327 324 329 333 355 52 92 108 149 154 88 324 249 43 2 30 358 346 345 350 6 44 332 346 329 263 275 257 170 115 126 126 99 84 346 340 63 94 357 350 9 33 349 300 351 175 254 325 10 17 83 45 22 73 129 46 26 359 356 359 359 85 85 70 67 63 61 60 55 56 54 50
351 350 349 347 346 346 344 344 343 341 340 337 336 332 328 328 326 334 351 359 43 76 86 108 148 129 87 11 351 28 29 9 343 341 346 352 0 342 329 347 56 68 114 128 118 115 99 88 78 69 135 40 71 95 37 2 341 353 112 233 273 177 239 333 37 15 2 69 18 37 124 112 25 0 358 11 21 82 86 75 69 65 61 60 56 55 54 51
348 347 346 345 344 343 342 343 342 340 340 339 337 332 329 330 331 1 39 42 66 96 107 137 141 96 74 5 5 354 332 327 333 342 1 2 354 342 344 13 68 60 91 103 113 113 56 51 86 319 46 53 89 99 50 337 290 311 31 204 246 188 201 238 127 15 26 72 47 50 91 94 39 18 13 18 25 75 82 74 70 67 61 60 59 59 57 54
345 344 344 344 343 341 341 341 340 341 342 340 338 333 331 335 5 76 63 21 47 104 97 115 67 78 355 349 348 302 306 315 333 360 9 0 354 355 15 56 65 56 65 59 66 69 9 31 77 33 10 4 66 106 167 231 229 249 204 181 268 229 228 237 212 344 38 68 72 75 85 88 68 47 36 28 32 71 78 75 71 66 63 63 60 62 60 58
344 343 342 342 342 340 340 339 340 342 344 345 340 333 334 346 43 82 47 28 60 86 72 303 15 102 266 320 294 305 314 313 341 16 4 357 350 350 30 40 49 79 67 25 332 15 41 51 55 99 268 274 204 167 200 211 185 198 184 163 173 179 244 231 79 46 85 73 55 74 93 96 76 53 48 38 40 69 74 71 69 65 64 64 62 63 62 61
344 342 341 341 341 339 338 340 341 344 350 350 342 335 2 24 12 357 359 31 88 102 52 227 155 101 307 322 317 333 338 331 30 25 4 355 344 344 24 22 31 58 79 186 264 1 77 113 247 226 219 228 224 209 202 183 145 121 141 140 160 175 258 315 116 183 106 78 42 69 93 90 74 51 37 38 46 60 64 65 64 65 66 65 66 65 63 64
346 343 341 341 341 339 339 340 342 352 357 354 356 19 99 103 29 319 329 12 220 50 31 232 204 277 298 301 327 349 1 9 19 21 8 356 349 7 332 20 46 37 7 225 253 359 61 166 240 233 220 224 231 199 156 136 117 86 154 157 165 188 222 29 123 261 52 91 97 108 92 75 60 57 43 48 58 52 53 63 65 67 69 67 66 65 64 65
345 343 341 340 341 341 340 341 348 359 1 6 35 78 121 141 124 181 345 18 292 350 28 317 347 327 302 297 343 358 49 26 351 351 4 359 8 23 319 44 70 275 342 356 302 359 17 243 249 240 200 152 68 137 137 121 114 82 125 146 202 225 144 96 55 6 27 99 152 155 99 81 67 70 60 58 67 58 51 61 66 71 71 66 63 61 61 59
344 343 342 339 341 343 341 344 355 4 14 34 58 87 111 110 115 118 94 85 310 332 24 20 41 345 340 32 4 9 55 46 317 318 356 2 15 41 56 58 60 266 6 15 169 40 307 256 259 232 162 134 65 73 107 92 91 111 133 146 213 237 156 151 34 20 25 89 146 141 99 91 94 79 69 62 71 70 59 62 65 69 73 72 67 62 59 58
342 342 342 338 341 344 341 346 9 13 28 54 64 87 111 109 115 96 80 87 333 314 6 14 149 36 350 359 356 15 81 73 271 310 353 12 20 22 79 85 58 65 1 29 150 175 249 250 144 84 97 142 114 37 104 125 313 287 183 179 190 198 166 127 132 101 52 66 137 124 91 111 134 103 94 82 73 64 53 63 65 61 72 76 73 67 61 61
342 343 342 340 342 345 342 353 20 14 29 61 58 78 97 96 119 86 77 83 357 314 332 281 160 46 295 345 357 3 137 74 245 287 345 20 7 346 34 132 62 19 257 163 121 242 277 276 142 86 59 75 114 289 226 167 252 307 230 207 196 167 124 120 143 129 70 79 201 149 107 216 170 130 128 124 76 64 44 58 66 61 67 68 70 69 63 64
343 343 343 344 344 347 347 17 7 2 26 51 33 37 73 85 126 98 76 68 35 315 345 301 161 4 333 349 353 348 96 20 299 315 1 16 348 144 51 298 16 32 202 182 342 269 286 351 61 102 89 62 61 303 268 153 129 312 263 184 160 124 123 142 161 150 112 198 221 197 191 191 196 174 148 136 94 78 57 58 66 66 70 68 69 70 65 66
344 343 344 345 348 356 4 19 350 359 53 17 6 5 203 109 95 128 63 44 17 300 354 311 290 14 343 329 346 77 74 314 332 32 17 5 339 110 46 310 340 359 202 131 359 291 260 357 29 51 66 52 33 350 297 124 117 255 245 133 120 110 135 165 176 186 189 193 154 180 165 133 207 194 149 137 107 83 66 61 65 70 76 77 76 74 69 67
344 341 344 346 351 7 27 24 358 23 65 332 355 51 155 140 135 141 84 56 340 357 46 303 324 25 342 334 11 73 276 309 34 356 346 21 3 9 34 305 179 261 323 92 275 273 288 18 25 37 45 36 327 288 246 138 113 249 200 125 95 102 143 164 167 188 345 26 260 200 167 161 244 151 133 138 118 101 85 72 68 77 86 88 85 81 75 72
343 340 343 350 359 11 24 35 25 34 359 331 349 14 172 133 68 70 75 101 290 24 189 311 17 342 342 357 15 31 4 2 44 314 335 31 16 22 69 202 141 139 336 67 205 254 346 94 151 87 59 355 265 284 235 147 38 205 132 92 52 58 61 88 132 134 62 31 238 214 186 195 257 153 147 157 147 141 126 97 77 83 95 95 91 88 83 78
342 341 348 3 17 6 2 23 22 15 351 340 298 262 147 89 63 62 44 244 320 339 267 26 22 330 3 24 356 359 24 5 331 330 352 14 353 18 81 200 105 116 356 22 149 239 323 301 181 97 76 209 198 8 70 131 140 130 105 64 48 45 41 46 69 99 79 274 253 241 211 181 240 178 152 181 178 150 140 122 98 93 99 101 97 92 87 80
342 347 4 27 25 9 1 353 2 359 350 347 288 135 100 33 64 83 51 262 335 341 12 23 356 6 30 43 347 348 15 339 332 9 15 360 359 12 29 13 35 53 12 12 352 315 5 23 353 342 330 71 98 75 37 32 75 107 94 65 55 350 19 30 353 55 108 255 261 278 248 163 207 226 95 22 87 124 131 128 115 105 105 111 107 98 97 89
345 5 33 36 24 16 17 357 350 351 349 351 126 83 81 36 29 83 293 317 347 345 19 345 324 10 14 28 8 339 339 337 359 49 38 19 36 27 30 27 359 11 5 349 332 343 5 337 318 325 340 39 57 38 13 10 40 53 30 57 40 335 7 357 313 300 202 245 254 312 2 151 187 315 74 67 87 105 115 119 116 109 111 119 120 113 110 95
352 52 57 37 23 18 17 360 350 355 349 5 98 52 75 71 20 235 290 330 357 334 359 295 317 345 341 15 7 331 340 349 357 37 74 77 64 34 20 23 20 27 345 326 351 357 342 304 335 10 349 19 56 49 3 332 2 5 350 95 86 38 26 302 276 271 274 257 228 317 9 135 111 97 119 88 97 113 114 114 107 97 107 127 132 119 104 90
27 92 63 37 25 17 12 1 355 1 348 85 74 51 64 60 249 211 322 291 286 334 357 346 324 344 31 44 346 323 26 1 348 21 12 31 48 11 353 6 14 35 358 359 15 32 14 308 333 19 326 360 41 60 75 218 1 338 191 132 132 156 154 264 237 235 279 278 283 325 23 217 175 109 130 107 101 112 118 121 105 86 85 116 137 125 99 85
133 113 58 30 20 12 8 2 358 2 10 73 60 63 79 309 258 141 322 275 298 330 316 329 8 24 18 351 333 352 45 327 350 38 26 29 56 8 349 346 355 19 44 14 322 63 49 272 280 316 293 12 29 295 130 79 32 275 177 92 51 187 154 204 197 186 229 297 311 323 104 11 45 84 110 111 104 102 117 128 108 89 77 88 124 140 110 80
151 126 52 24 13 4 2 360 350 355 95 83 60 61 122 212 249 160 236 300 347 317 322 354 33 42 353 320 337 356 3 326 356 37 37 47 77 9 359 303 333 18 49 70 283 348 21 280 291 334 325 57 71 272 355 38 343 346 49 36 256 171 119 111 277 21 69 26 291 172 132 84 76 174 176 128 113 99 105 124 114 98 78 64 43 123 132 87
159 152 45 20 6 356 353 355 348 25 82 79 78 93 198 194 152 179 252 330 288 284 20 21 17 29 352 315 324 333 341 353 10 32 35 32 44 19 2 314 320 42 19 240 250 278 139 280 305 13 355 297 182 201 10 17 92 59 359 241 239 69 92 105 308 354 28 322 274 76 133 177 188 181 172 158 141 114 92 93 126 112 75 50 22 18 137 101
163 170 96 12 359 351 349 356 1 86 78 65 79 124 192 106 112 202 238 337 272 35 57 56 343 34 82 339 320 321 342 2 4 24 36 7 23 62 34 328 297 78 352 301 277 298 116 294 305 323 214 299 345 79 359 333 14 61 263 235 73 68 9 20 27 349 358 311 289 339 110 209 214 171 180 182 161 124 93 63 103 89 50 43 13 0 76 92
143 80 87 354 351 349 351 12 36 68 68 63 88 138 109 357 298 221 224 335 76 70 64 98 313 21 80 82 333 319 356 19 355 18 60 24 7 70 77 331 287 346 343 324 211 301 81 103 292 278 251 319 4 48 4 330 338 10 24 360 28 121 165 339 25 177 236 295 296 329 339 251 247 161 168 166 137 118 103 60 67 32 25 40 6 350 19 68
118 36 211 347 349 350 23 51 49 54 63 91 155 148 41 315 281 292 264 335 54 56 52 166 343 11 1 23 40 343 10 35 14 22 36 1 1 40 61 45 300 320 334 8 80 348 3 101 265 291 328 7 13 16 353 312 313 348 28 12 347 356 120 340 60 115 141 251 254 317 312 260 81 26 118 125 114 115 100 66 50 16 18 31 2 348 45 64
75 49 273 343 348 348 83 49 45 57 78 94 114 96 45 49 352 355 349 14 63 43 103 131 113 55 14 23 31 356 356 15 29 55 7 10 37 22 24 59 317 312 340 15 37 10 1 89 247 299 341 16 342 317 310 266 259 73 74 37 310 291 33 47 339 332 54 95 168 222 298 278 81 39 94 98 93 102 81 61 38 10 11 18 359 2 92 67
62 70 317 345 351 52 88 45 24 58 84 78 48 71 23 43 60 5 356 26 48 48 70 85 86 73 86 62 2 282 14 6 8 47 31 9 35 8 357 26 311 285 353 12 332 320 41 88 46 293 304 315 291 302 333 96 92 90 76 40 357 346 73 101 258 285 347 354 26 123 299 265 60 40 85 77 65 85 72 57 31 3 359 0 353 32 99 53
65 133 340 355 354 131 79 46 343 26 51 203 20 65 4 36 58 359 1 20 19 21 32 36 58 45 68 144 213 116 67 21 135 63 15 330 359 36 135 337 294 267 52 7 314 317 48 64 22 304 301 319 316 325 359 89 81 70 35 30 43 344 4 166 190 205 278 323 10 60 310 263 202 100 98 82 60 67 66 45 19 356 346 351 353 39 74 26
88 191 338 9 21 114 90 68 117 44 20 300 42 28 356 40 63 15 9 13 5 72 65 24 273 30 87 175 108 93 335 25 62 45 48 41 359 129 182 243 300 5 53 26 302 342 359 46 45 7 350 346 345 351 340 342 39 50 3 11 27 1 360 311 191 45 358 305 70 125 264 271 135 121 104 85 56 41 41 23 6 354 347 350 357 28 31 9
70 128 291 14 37 66 99 141 141 122 96 64 56 23 2 42 72 11 120 32 341 161 115 342 260 104 135 73 49 12 6 32 33 23 39 8 310 306 232 268 300 28 294 242 264 352 88 132 91 85 43 330 312 313 317 319 350 23 1 0 10 23 14 321 288 37 34 333 33 154 230 285 134 152 116 62 36 10 2 357 353 354 349 347 357 20 10 1
82 60 314 349 27 53 78 118 101 108 120 94 62 18 24 50 293 237 161 124 298 135 57 1 336 12 32 42 37 3 9 28 51 61 40 328 294 276 294 286 252 296 274 232 257 72 100 67 63 126 160 221 241 259 310 341 347 339 343 352 358 357 360 51 78 51 235 308 334 222 200 330 126 154 34 17 10 354 346 346 345 347 345 344 9 21 3 358
92 83 18 329 355 29 40 25 37 69 113 112 90 13 3 2 321 291 142 126 213 88 64 39 31 32 20 27 33 2 355 16 42 57 17 294 285 281 299 291 272 323 320 165 114 74 87 33 21 112 183 238 241 276 324 19 71 46 358 355 354 352 13 65 80 13 59 42 310 263 57 336 327 77 23 354 351 348 340 340 340 337 337 343 18 5 353 351
67 132 175 67 57 29 19 14 37 55 51 71 104 67 5 12 24 12 322 346 14 26 59 43 25 23 355 328 47 15 354 15 33 13 308 305 322 330 333 327 328 349 8 34 356 79 102 48 350 119 259 279 315 321 340 76 90 64 34 11 2 7 32 69 101 78 66 70 268 294 350 313 285 52 7 338 346 345 333 331 332 329 333 353 14 352 347 344
77 111 342 17 86 124 22 341 47 61 46 49 77 59 41 44 42 7 303 357 7 359 44 57 360 352 347 328 111 88 5 25 34 313 287 337 339 356 5 341 324 2 31 29 354 82 115 15 321 130 309 321 355 348 32 98 105 63 40 22 8 12 38 66 112 273 10 278 266 315 331 295 218 44 336 330 346 333 323 325 327 328 338 16 7 343 340 338
118 137 142 56 68 82 33 13 50 64 41 44 63 45 56 58 32 3 5 33 16 349 29 68 331 330 8 24 70 100 267 184 153 264 217 106 11 19 42 334 301 341 15 31 342 341 35 357 342 80 351 318 337 3 36 89 113 101 52 17 10 11 27 37 20 357 343 301 295 332 316 283 118 35 328 328 335 326 324 325 324 328 352 24 351 336 335 333
101 130 137 104 58 359 7 10 55 75 38 19 40 18 29 34 22 72 43 33 68 26 10 57 226 249 36 37 55 50 287 206 174 228 192 139 79 55 54 86 241 319 353 23 348 352 27 11 7 52 16 302 312 10 357 56 95 81 21 357 359 360 4 1 332 315 307 297 305 323 310 279 345 343 327 326 328 325 321 318 319 331 24 11 339 332 332 331
102 82 92 101 77 1 2 354 31 70 57 359 19 348 9 16 356 92 83 22 58 100 187 211 185 130 49 34 40 5 301 219 194 237 164 135 102 90 81 60 91 35 355 40 23 4 51 61 31 41 17 287 295 329 302 12 48 2 322 331 318 309 6 343 299 292 286 271 281 295 290 304 330 330 327 325 326 326 319 317 322 338 14 353 337 329 330 334